Theta_e
303 303 302 302 301 301 301 301 300 300 301 300 300 300 300 300 299 299 300 299 299 298 298 298 298 298 298 299 299 299 298 298 298 298 297 297 297 298 297 297 297 297 296 296 296 295 295 294 294 294 294 293 293 293 294 294 294 294 294 293 293 293 293 293 292 293 292 292 292
303 302 301 299 299 300 301 301 301 300 301 301 301 300 300 300 299 299 299 299 299 298 298 298 298 298 298 298 298 298 298 298 298 297 297 297 297 297 297 296 296 296 296 295 295 295 294 294 294 293 293 293 293 293 293 293 294 294 293 293 293 293 293 293 292 293 293 292 293
303 302 301 301 300 300 301 301 301 300 300 300 301 300 300 300 299 299 299 298 298 298 298 298 298 298 298 298 298 298 298 298 297 297 297 296 296 296 296 296 295 295 295 295 294 294 294 294 293 293 293 293 292 292 293 293 293 293 293 293 293 293 293 293 293 293 293 293 292
303 302 301 300 300 300 301 301 300 300 300 300 301 301 300 300 299 299 298 298 298 298 297 297 297 298 298 298 298 298 297 297 296 296 296 296 295 295 295 295 295 295 295 295 294 294 294 294 294 293 293 293 292 292 292 293 293 293 292 293 293 293 293 293 293 293 293 293 292
303 302 301 301 301 301 302 301 301 300 300 301 300 300 299 299 298 298 298 297 297 297 298 298 297 297 298 297 297 297 296 296 295 295 295 295 295 295 295 295 295 294 294 294 294 294 294 294 294 293 293 293 293 293 293 293 293 293 293 293 293 293 293 293 293 293 293 293 292
302 301 302 302 302 302 302 302 301 301 301 300 299 298 297 297 297 297 297 297 297 297 297 297 297 296 296 297 296 296 296 295 295 295 295 295 295 295 294 294 294 294 294 294 294 294 294 294 293 293 293 293 293 293 293 293 293 293 293 293 293 293 293 293 293 293 293 292 292
300 300 301 302 302 302 301 301 301 300 299 299 298 297 297 297 297 297 297 297 297 297 297 296 296 296 296 296 295 295 295 295 295 295 295 294 294 294 294 294 294 294 294 294 294 293 293 293 293 292 292 292 292 292 293 293 293 293 293 293 293 293 293 293 293 293 292 292 292
299 299 299 299 300 299 299 299 299 298 298 297 297 297 297 297 297 297 297 297 296 296 296 296 296 296 296 295 295 295 295 295 294 294 294 294 294 294 294 294 294 294 294 294 294 293 293 293 293 293 292 292 292 293 293 293 293 292 292 292 293 293 293 293 293 293 293 292 292
299 299 299 298 298 298 298 298 298 297 297 297 297 297 297 297 297 296 296 296 295 295 295 295 295 296 295 295 295 295 295 294 294 294 294 294 294 294 294 293 293 293 293 293 293 293 293 293 293 293 293 293 292 292 292 293 292 292 292 292 292 293 293 293 293 293 293 292 292
299 298 298 298 298 297 297 297 297 297 297 296 296 297 296 295 295 296 296 295 295 295 295 295 295 295 295 295 295 294 294 294 294 293 293 293 292 292 292 292 292 292 292 292 292 292 292 292 291 291 291 291 291 291 291 292 291 291 291 291 291 292 292 292 292 292 292 292 292
298 298 298 297 297 297 297 297 297 296 296 296 296 296 296 295 295 295 295 295 295 295 295 295 295 294 294 294 293 293 293 293 293 292 292 291 291 291 291 291 291 291 291 291 291 291 291 291 290 290 290 291 291 290 290 291 290 290 290 290 290 290 290 290 291 291 291 291 291
298 297 297 297 297 297 296 296 296 296 296 296 295 295 295 295 295 295 295 294 294 294 294 294 294 294 293 292 292 292 292 292 292 291 291 291 291 291 291 291 291 291 290 290 291 291 290 290 290 290 290 290 290 290 290 290 289 289 289 289 289 289 289 289 289 290 290 290 290
297 297 297 297 297 297 296 296 296 295 295 295 295 294 294 295 294 294 294 294 294 294 294 294 293 293 293 292 292 292 292 292 291 291 291 291 291 291 291 291 291 290 290 290 291 291 290 290 290 289 289 289 289 290 290 289 289 289 289 289 289 289 289 289 289 289 289 289 289
297 297 296 296 296 296 296 295 295 295 295 294 294 294 294 294 294 294 294 294 293 293 293 293 293 293 292 292 292 292 292 292 292 291 291 291 291 291 291 291 290 290 290 290 291 290 290 290 289 289 289 289 289 289 289 289 289 289 288 288 288 288 288 288 289 289 289 289 288
297 296 296 296 296 296 295 295 295 295 294 294 294 294 294 294 294 294 294 294 293 293 293 293 293 292 293 293 292 292 292 292 292 292 291 291 291 291 291 291 290 290 290 290 290 290 290 290 289 289 289 289 289 289 289 289 289 289 288 288 288 288 288 288 288 288 288 288 288
296 296 296 296 296 295 295 294 294 294 294 294 294 294 294 294 294 294 294 294 293 293 293 293 293 293 293 293 293 293 292 292 292 292 291 291 291 291 291 291 290 290 290 290 290 290 290 290 290 289 289 289 289 289 289 289 289 288 288 288 288 288 288 288 288 288 288 288 288
296 296 296 295 295 295 294 294 294 294 294 294 294 294 294 294 294 293 293 293 293 293 293 293 293 293 293 293 293 293 292 292 292 292 292 291 291 291 291 290 290 290 290 290 289 289 289 289 290 289 289 289 289 289 288 288 288 288 288 288 288 288 288 288 288 288 288 288 288
295 295 295 295 294 294 294 294 294 294 293 293 293 294 294 294 293 293 293 293 293 293 293 293 293 293 293 293 293 293 292 292 292 292 292 291 291 291 291 291 290 290 290 290 289 289 289 289 289 289 289 289 289 289 288 288 288 288 288 288 288 288 288 288 288 288 288 288 288
295 295 295 294 294 294 294 294 293 293 293 293 294 293 293 293 293 293 293 293 293 293 293 293 293 293 293 293 293 292 292 292 292 292 292 291 291 291 291 290 290 290 290 290 289 289 289 289 289 289 289 289 289 288 288 288 288 288 288 288 288 288 288 288 289 289 289 289 288
294 294 294 294 294 294 294 293 294 294 294 294 293 293 293 293 293 293 292 292 293 293 293 293 293 293 293 293 292 292 292 292 292 292 291 291 291 291 290 290 290 290 290 289 289 289 289 289 289 289 289 289 288 288 288 288 288 288 288 288 289 289 289 289 289 289 289 289 289
294 294 294 294 294 293 293 293 293 293 293 293 293 293 293 293 293 292 292 293 293 293 293 293 293 293 292 292 292 292 292 292 292 291 291 291 291 290 290 290 290 290 289 289 289 289 289 289 289 289 289 288 288 288 288 288 288 288 288 289 289 289 289 289 289 289 289 289 289
294 294 294 294 294 294 293 293 293 293 293 293 293 293 293 293 293 293 293 293 293 293 293 293 293 293 292 292 292 292 292 292 291 291 291 290 290 290 290 290 290 289 289 289 289 289 289 289 289 289 289 288 288 288 288 288 288 288 288 289 289 289 289 289 289 288 288 287 287
294 294 294 294 294 293 293 293 293 293 293 292 292 292 292 293 293 293 293 293 293 293 293 293 293 293 292 292 292 292 291 291 291 291 290 290 290 290 290 290 289 289 289 289 289 288 288 288 289 288 288 288 288 288 288 288 288 288 288 288 288 288 287 287 287 286 286 286 286
294 294 294 294 294 293 293 293 293 292 292 292 292 292 292 292 292 293 293 293 293 293 293 292 292 293 292 292 292 291 291 290 290 290 290 290 289 289 289 289 289 289 289 289 289 289 289 288 288 288 288 287 287 287 287 288 287 287 287 287 286 286 286 286 285 285 285 285 285
294 294 294 294 293 293 293 293 292 292 292 292 292 292 292 292 292 292 292 293 293 293 292 292 292 292 292 291 291 291 290 290 289 289 289 289 289 289 289 289 289 289 289 289 290 290 290 289 288 288 287 287 287 287 287 287 287 287 286 286 286 285 285 285 285 285 285 285 285
294 294 294 293 293 293 293 292 292 292 292 292 292 292 291 291 291 292 292 292 292 292 292 292 291 291 291 291 291 290 290 290 289 289 289 289 289 289 289 289 289 289 289 289 290 289 289 290 289 288 287 287 287 287 287 287 287 286 286 285 285 285 284 284 284 284 284 284 284
294 293 293 293 293 293 292 292 292 292 292 292 292 292 291 291 291 291 291 291 291 291 291 291 291 291 290 291 290 290 290 289 289 289 289 288 288 288 288 288 288 288 289 289 289 289 289 289 290 289 288 287 286 286 286 286 286 285 285 285 284 284 284 283 283 283 284 284 284
293 293 293 293 292 292 292 292 292 292 292 292 292 291 291 291 291 291 290 290 291 291 290 290 291 290 290 290 289 289 289 289 289 288 288 288 288 287 287 287 287 288 288 289 289 289 289 290 290 289 288 286 286 286 285 285 285 285 284 284 284 284 283 283 283 283 283 283 284
293 293 293 293 292 292 293 293 292 292 292 292 292 291 291 291 291 290 290 290 290 289 289 289 290 289 289 289 289 289 288 288 288 288 288 287 287 287 287 287 287 287 288 289 289 289 289 290 289 289 288 287 286 285 285 284 284 284 284 283 283 283 283 283 283 283 283 283 284
293 293 293 293 293 293 293 293 293 292 292 292 292 291 291 291 290 290 290 289 289 289 289 289 289 289 288 288 288 288 288 288 288 287 287 287 286 286 286 286 286 287 287 288 289 289 289 289 289 288 288 287 285 284 283 283 283 283 283 283 283 283 283 283 283 283 283 283 284
292 293 293 293 293 293 293 293 292 292 292 292 292 291 291 290 290 289 289 289 289 289 289 289 288 288 288 288 288 287 287 287 287 287 286 286 285 285 286 286 286 286 287 288 289 289 289 289 288 288 287 287 285 284 283 283 283 283 283 283 283 283 283 283 283 283 283 283 283
292 292 293 293 293 293 292 292 292 292 292 292 291 291 290 290 290 289 289 289 289 289 288 288 288 288 288 287 287 287 287 286 286 286 286 286 285 285 285 285 285 286 287 288 289 289 288 288 288 287 287 286 285 284 284 284 283 283 283 283 283 283 283 283 283 284 284 284 284
293 293 293 292 292 292 292 292 292 292 292 291 291 290 290 290 289 289 289 289 288 288 288 288 287 287 287 287 286 286 286 286 286 285 285 285 285 285 285 285 285 286 287 288 288 288 288 287 287 287 286 286 285 284 284 284 284 284 284 284 284 284 284 284 284 284 284 284 284
294 293 293 293 292 292 292 292 292 292 291 291 290 290 290 289 289 288 288 288 288 288 288 287 287 287 286 286 286 286 285 285 285 285 285 285 285 285 285 285 285 287 288 288 288 287 287 287 287 287 286 286 285 284 284 284 284 284 284 284 284 284 285 285 285 285 285 285 285
294 293 293 292 292 291 291 291 291 291 290 290 290 289 289 289 288 288 288 288 287 287 287 287 287 287 286 286 286 286 285 285 285 285 285 285 285 285 285 285 285 286 287 287 287 287 287 287 286 286 286 285 285 284 284 284 284 284 284 284 284 285 285 285 285 285 285 285 285
294 293 293 292 291 291 291 291 290 290 290 289 289 289 289 288 288 288 288 287 287 287 286 286 286 286 286 285 285 285 285 285 285 285 285 285 285 285 284 285 285 286 286 287 287 286 286 286 286 286 286 285 285 284 284 284 284 284 284 284 285 285 285 285 285 286 286 286 286
292 292 292 291 291 290 290 290 290 289 289 289 288 288 288 288 288 288 287 287 286 286 286 286 285 285 285 285 285 285 285 285 285 284 284 285 284 284 284 284 284 284 285 286 286 286 286 286 286 286 286 285 285 284 284 284 284 284 284 285 285 285 286 286 286 286 286 286 286
291 291 291 291 290 290 290 290 289 289 288 288 288 288 288 287 287 287 287 286 286 286 285 285 285 285 285 285 285 285 285 285 285 284 284 284 284 284 284 283 283 284 284 285 286 286 286 286 286 286 286 285 285 285 284 285 285 285 285 285 285 285 286 286 286 286 286 287 287
291 291 290 290 290 290 289 289 289 288 288 288 288 287 287 287 287 286 286 286 286 285 285 285 285 284 285 284 284 284 284 285 285 284 284 284 284 284 283 283 283 283 284 285 286 286 286 286 286 286 286 285 285 285 285 285 285 285 285 285 285 285 285 286 286 286 286 286 287
291 291 290 290 290 289 289 288 288 288 288 288 287 287 287 286 286 286 286 286 286 285 285 285 284 284 284 284 284 284 284 284 284 284 284 284 284 284 284 283 283 283 284 285 286 286 286 287 287 287 287 286 286 286 285 285 285 284 284 285 285 285 285 285 286 285 285 284 286
291 290 290 290 289 289 288 288 288 288 288 287 287 287 286 286 286 286 286 286 286 285 285 284 284 284 284 283 283 283 283 284 284 284 284 283 284 284 284 283 283 283 283 284 286 286 287 287 287 288 287 286 286 286 286 285 285 284 284 285 285 285 284 284 284 284 284 284 284
Wind_Speed
5 5 5 5 4 4 3 3 2 2 1 1 1 2 2 3 3 2 2 3 3 3 3 3 3 3 3 5 5 6 6 6 7 7 7 7 7 7 7 7 7 7 7 7 7 7 7 7 7 6 5 5 6 6 6 6 6 7 8 8 8 8 8 9 9 10 11 11 10
8 8 7 5 4 4 3 3 3 2 2 2 2 2 3 3 3 2 3 3 3 3 3 2 2 3 4 5 5 5 6 6 7 7 7 7 7 7 7 7 7 7 7 7 7 7 7 7 6 6 5 5 6 6 6 6 6 7 9 10 8 7 7 8 9 10 10 10 10
9 8 7 6 5 4 4 3 3 2 2 2 2 3 3 3 3 3 3 3 3 3 2 2 2 3 3 4 4 4 5 6 7 7 7 7 7 7 7 7 7 7 7 7 7 7 7 7 7 6 6 6 6 7 7 7 7 7 8 9 7 7 7 7 8 8 8 7 9
9 8 7 6 6 6 5 4 4 3 2 2 3 3 3 3 3 3 3 3 2 2 2 2 2 3 3 4 4 5 5 6 7 7 7 7 7 7 7 7 7 8 8 8 8 8 8 8 7 6 6 7 8 8 7 7 7 7 7 7 6 6 7 7 7 7 7 7 8
8 7 6 6 6 6 5 5 4 3 3 3 3 3 3 3 3 3 2 2 2 2 3 3 3 4 4 4 5 6 6 7 6 6 6 6 7 7 7 7 8 8 8 8 8 9 9 9 7 6 6 7 7 7 8 8 8 8 7 6 6 6 7 7 7 6 6 7 6
7 6 6 5 6 6 6 5 6 5 4 4 4 4 3 3 3 2 2 2 2 3 4 4 4 4 5 6 6 6 6 6 6 6 6 7 7 7 8 8 8 8 8 8 9 9 9 9 7 6 6 6 7 8 9 9 9 8 8 7 7 7 6 7 6 7 7 8 8
7 7 6 6 6 6 7 7 7 6 5 4 4 4 4 3 3 3 2 3 3 3 4 4 4 5 5 5 6 6 6 6 6 6 7 7 7 8 8 9 9 9 9 9 9 9 9 8 7 7 6 6 6 7 8 9 8 8 8 8 7 7 7 8 7 7 8 10 11
8 7 7 7 7 7 8 8 7 6 5 3 4 4 3 3 3 3 3 3 3 3 4 4 5 5 5 5 5 6 6 7 7 7 7 7 8 9 9 9 10 10 10 10 10 10 9 8 7 7 7 6 6 7 8 9 9 9 9 9 8 7 7 7 7 7 9 11 12
7 7 7 7 7 7 7 7 6 6 5 4 3 2 2 2 3 3 3 3 4 4 4 4 5 5 6 6 7 7 7 7 7 8 8 8 9 9 10 10 10 10 10 10 10 11 10 9 7 7 7 7 7 7 8 9 10 10 10 9 8 8 7 8 8 8 10 11 12
8 8 7 7 7 7 6 6 6 5 4 3 1 1 1 2 3 3 4 4 4 4 4 4 5 6 7 7 7 7 7 7 8 8 9 9 10 10 10 10 10 10 10 9 9 9 9 8 8 7 7 7 8 8 9 10 10 10 10 8 8 9 10 10 10 10 11 11 12
8 8 8 7 7 6 6 5 5 4 3 2 1 2 2 3 3 4 4 3 4 4 5 5 6 7 8 7 7 8 7 7 7 8 9 10 10 10 11 10 11 11 11 11 9 9 8 8 8 9 9 8 9 9 10 10 11 11 11 9 10 11 12 12 12 11 11 12 13
7 7 7 6 6 5 5 4 3 3 2 2 2 3 3 3 3 3 3 3 4 5 6 7 8 8 8 8 8 8 8 8 8 9 9 10 11 11 12 12 12 12 12 12 10 9 8 9 10 11 11 11 10 9 10 11 12 12 12 12 12 12 13 13 13 12 11 12 13
5 5 5 5 5 4 4 3 2 2 2 2 1 1 1 1 2 2 3 4 5 6 7 8 8 8 9 9 8 8 8 8 9 9 10 10 11 12 12 13 13 13 13 11 10 9 9 10 11 13 13 13 11 10 11 12 12 13 13 13 13 13 13 14 13 13 13 13 13
4 4 4 4 4 4 3 2 1 1 1 0 0 1 2 2 3 3 4 5 6 7 8 8 8 8 8 9 8 9 9 9 10 11 11 11 12 12 12 12 13 13 12 10 10 10 11 11 12 13 14 14 13 12 12 12 12 13 13 14 14 14 14 14 14 14 14 14 14
6 5 5 4 3 2 2 1 1 1 1 1 2 2 2 2 3 4 5 6 7 7 7 7 7 8 8 8 8 9 10 10 11 12 12 13 13 13 13 13 13 13 12 11 11 11 11 12 13 13 13 14 14 14 14 13 13 13 13 14 14 15 15 14 14 14 14 14 14
4 4 4 3 2 1 1 1 1 1 1 1 2 2 2 3 4 5 6 6 7 7 7 8 8 7 7 7 8 9 10 11 11 12 13 13 13 13 13 13 13 13 13 13 12 12 12 12 12 12 13 13 14 14 14 14 14 14 14 14 15 15 15 15 15 14 14 14 15
3 2 2 2 1 1 1 1 1 1 1 1 2 3 3 4 5 6 6 7 7 7 7 7 6 6 6 7 7 8 9 10 11 12 12 13 13 14 14 14 14 14 14 14 14 14 13 13 12 12 12 13 13 13 14 14 14 14 14 15 15 15 15 15 15 15 15 15 15
2 2 2 1 1 1 0 0 1 1 2 2 3 4 5 6 6 7 7 8 7 7 6 6 6 6 7 7 8 8 9 10 11 12 12 13 14 14 14 14 14 14 14 14 14 14 14 14 14 13 12 12 12 13 13 13 14 14 14 15 15 15 15 15 15 15 15 15 15
2 2 1 1 1 1 1 1 2 2 3 4 5 6 7 7 8 8 8 8 7 6 6 6 6 6 7 8 8 8 8 9 11 12 13 13 14 14 14 15 15 15 14 14 14 14 14 14 13 13 13 12 13 13 13 13 13 14 14 14 14 15 15 15 15 15 15 15 15
1 1 1 1 1 1 1 1 2 3 4 5 6 7 8 9 9 9 9 8 7 6 6 7 7 7 8 9 9 9 9 9 10 11 13 13 13 14 14 15 15 15 15 14 14 14 14 14 14 13 13 13 14 14 14 14 14 14 14 13 14 14 15 15 14 14 14 15 15
1 1 1 1 1 1 1 2 3 4 5 6 7 8 9 9 9 9 8 7 7 6 7 7 8 8 9 9 10 10 10 8 9 10 12 12 13 14 14 14 14 14 14 13 13 13 14 14 14 13 13 13 13 14 13 13 13 14 14 13 13 13 14 13 13 13 13 13 14
1 1 1 1 1 1 2 3 4 5 6 7 8 8 9 9 8 8 7 6 6 6 7 8 9 9 9 9 10 10 9 9 9 10 11 12 12 13 13 13 13 14 14 14 13 13 13 13 13 13 13 12 13 13 13 13 13 14 14 14 13 13 12 12 11 12 12 12 13
3 3 2 2 2 2 3 4 5 6 7 8 9 9 9 8 7 6 6 5 6 6 7 8 8 8 9 9 9 10 10 10 10 11 12 12 12 13 13 13 13 14 14 13 12 12 12 12 12 12 12 11 12 12 13 13 13 13 13 13 13 12 11 11 11 11 12 13 14
6 5 4 4 4 4 5 5 6 7 8 10 10 9 8 6 6 5 6 6 6 7 7 7 7 7 8 9 9 10 11 11 12 12 13 13 13 13 13 12 12 12 12 10 10 10 10 9 9 10 10 11 11 11 11 12 11 11 11 12 12 12 11 11 12 13 14 15 15
5 4 4 5 6 6 6 7 8 9 10 10 9 8 6 6 5 5 6 6 6 6 7 7 7 7 8 8 9 10 11 11 12 13 13 13 13 12 12 11 11 10 10 9 11 13 13 11 10 9 9 10 10 10 10 10 10 10 10 11 11 12 12 13 14 15 16 17 17
3 5 6 7 8 8 8 9 10 10 10 9 7 7 6 6 6 6 6 6 6 7 7 7 7 7 7 8 9 10 10 10 11 11 12 12 12 12 12 11 10 9 9 10 12 14 14 14 13 11 9 8 8 8 9 9 9 9 9 10 11 11 12 13 15 16 16 17 17
7 8 9 10 10 10 10 10 9 8 7 6 6 7 7 8 7 7 7 7 7 7 7 7 7 7 6 7 8 9 10 9 10 11 11 12 12 12 12 11 9 9 9 11 13 14 15 14 13 10 8 6 6 6 7 8 9 9 9 10 11 12 13 15 16 16 17 16 17
10 10 10 10 10 9 9 8 7 6 6 6 7 7 8 8 9 8 8 8 8 7 7 6 6 5 5 5 7 8 9 10 10 10 10 11 12 12 12 11 10 9 10 13 14 15 14 12 10 9 7 6 6 6 7 8 9 9 10 10 11 12 13 14 14 15 15 16 16
10 9 8 8 7 7 6 6 6 6 6 6 7 8 8 8 9 9 9 9 9 8 7 6 5 5 5 6 7 9 10 10 10 10 10 11 11 11 11 11 11 11 12 15 15 14 13 11 10 10 9 9 7 6 7 8 9 9 10 10 11 11 12 13 13 13 13 14 15
7 6 5 5 5 4 4 5 5 5 6 6 7 8 9 9 9 10 10 10 10 8 7 7 6 6 7 8 9 9 10 10 10 10 10 11 11 11 11 11 11 12 13 15 15 14 13 12 12 12 12 12 9 7 7 8 9 10 10 10 11 13 14 14 15 15 15 14 15
6 5 4 4 4 4 4 4 5 4 5 5 7 9 9 10 10 10 10 9 9 9 9 8 9 9 10 10 10 10 10 10 10 10 10 11 11 12 12 13 12 12 13 14 14 14 13 14 14 14 15 15 12 9 8 9 10 11 11 11 13 14 15 15 15 16 16 17 16
6 5 5 4 3 3 4 4 4 4 5 6 8 9 10 10 10 9 9 8 9 9 10 10 10 11 11 11 11 11 11 11 11 11 11 11 12 12 13 13 13 12 12 14 14 14 14 15 16 16 17 17 14 11 10 11 11 12 12 14 15 16 16 15 15 16 17 18 17
6 5 5 4 4 3 3 4 4 4 5 7 8 9 9 9 9 9 9 9 9 9 10 10 10 10 11 11 11 11 11 11 11 11 11 12 12 13 13 12 11 11 12 14 14 15 16 17 18 18 19 19 15 13 11 12 11 11 12 13 14 16 17 17 17 17 17 18 18
4 5 5 5 4 3 3 4 4 5 6 7 7 8 8 9 9 10 10 9 8 8 8 9 9 9 9 9 10 10 10 10 10 11 11 12 12 13 13 12 9 10 12 15 16 17 18 19 19 20 20 20 15 13 12 13 12 12 13 14 15 15 16 17 17 18 18 19 18
4 4 4 4 3 3 4 5 5 6 7 7 8 8 8 9 9 10 10 9 8 8 8 8 8 9 9 9 9 9 10 10 11 11 11 11 11 12 12 12 11 12 14 16 17 18 19 20 21 21 21 18 14 12 12 13 13 14 14 15 16 16 17 17 17 17 17 18 18
3 2 1 1 3 3 4 5 6 7 7 8 8 8 8 9 9 9 9 9 8 8 8 9 9 9 9 9 9 9 9 10 11 11 11 10 10 11 12 12 12 14 15 17 19 20 21 21 22 22 21 17 12 11 11 12 12 13 14 15 15 16 16 17 16 16 16 17 17
0 1 1 1 3 4 5 6 7 8 8 8 8 8 8 9 9 9 8 7 8 9 9 9 9 10 10 9 9 9 10 11 11 11 10 10 9 10 11 12 13 14 15 17 19 21 22 22 23 22 20 15 12 11 11 11 10 11 12 14 14 15 15 14 14 15 15 15 15
2 2 2 3 4 5 7 7 8 9 9 9 8 8 8 8 8 8 8 7 7 8 9 9 10 10 11 11 11 11 11 11 11 10 10 9 9 9 11 13 13 14 15 17 20 21 22 23 24 23 20 15 13 12 11 10 10 10 11 12 12 13 12 11 10 10 11 12 13
2 3 4 5 6 7 8 9 9 9 8 8 8 8 8 8 7 7 7 7 7 8 9 9 10 11 11 11 11 11 11 11 10 9 9 8 9 10 11 13 13 14 15 17 20 22 23 23 24 23 21 17 14 12 10 10 10 11 11 11 11 10 10 9 8 7 8 10 13
3 4 6 7 7 8 9 10 9 8 7 7 8 8 8 8 7 7 7 7 7 8 9 10 11 11 11 11 11 11 11 11 10 9 9 8 10 11 13 13 14 14 16 17 20 21 22 23 23 23 21 17 13 11 9 9 9 10 10 9 8 8 7 7 6 7 7 9 12
4 6 7 7 8 8 9 10 9 8 7 7 8 8 7 7 7 7 7 7 8 8 9 9 11 12 12 11 10 10 11 10 10 10 9 9 10 12 13 12 14 14 15 16 18 20 21 22 23 23 21 16 12 9 8 8 8 8 8 8 7 6 6 7 7 8 8 10 10
Wind_Direction
139 119 109 107 111 114 114 104 88 85 97 131 156 145 128 112 105 97 86 76 64 56 47 35 20 4 352 346 341 336 333 331 327 325 322 317 312 308 306 303 300 299 296 294 293 292 290 288 286 284 282 279 278 277 276 274 274 274 273 272 273 273 273 273 273 272 272 272 271
113 106 101 102 107 109 107 96 85 83 90 105 97 95 93 90 87 79 69 63 62 55 44 26 2 343 331 325 321 316 311 307 303 300 297 294 292 291 290 289 289 289 288 288 288 287 285 284 284 283 281 280 279 278 276 274 273 273 272 272 272 272 272 272 271 271 271 270 270
103 105 106 110 113 113 110 104 103 106 109 104 89 82 80 83 80 73 64 60 58 51 36 3 335 319 309 302 297 292 286 282 281 279 278 277 278 280 281 282 283 283 284 284 283 282 281 282 281 280 279 279 278 278 277 275 274 273 272 271 271 271 270 270 270 269 269 269 268
100 106 111 116 119 118 116 113 122 129 128 108 92 86 84 83 77 71 64 54 40 22 356 325 310 300 292 286 280 276 273 272 271 272 272 273 275 277 279 280 281 282 281 281 280 280 280 280 280 279 278 277 277 276 275 275 274 272 271 271 270 269 269 268 268 269 269 268 268
100 107 114 121 124 123 120 118 125 120 102 78 80 81 80 75 70 62 47 24 360 335 318 307 301 295 290 284 280 277 275 273 272 273 274 275 276 278 278 279 279 279 278 278 278 278 278 278 278 276 275 274 274 273 272 272 272 272 271 270 269 268 268 268 268 268 268 268 268
105 109 115 121 123 118 111 105 99 90 78 66 68 68 63 56 49 34 12 349 330 312 303 297 292 287 283 280 278 276 275 273 273 273 274 275 276 276 276 276 275 275 275 275 275 275 275 276 275 274 272 271 270 269 269 269 269 269 268 268 266 266 267 267 267 268 268 269 269
113 117 121 122 115 107 101 99 94 90 86 79 71 64 56 44 29 10 348 328 311 300 293 287 281 278 276 275 275 275 274 273 273 272 272 274 274 274 274 274 274 274 274 274 274 274 274 273 272 272 271 270 270 269 268 267 266 265 265 265 264 264 264 265 266 268 269 269 271
121 125 127 124 114 106 103 104 103 100 94 82 69 59 46 31 7 341 321 307 297 289 284 280 278 278 279 279 277 275 274 272 272 271 271 272 273 273 273 273 273 273 272 271 271 269 268 267 266 266 266 266 266 265 264 263 262 262 262 262 263 262 262 263 265 266 267 269 270
132 133 129 123 115 111 109 108 104 100 94 83 67 47 23 1 335 316 304 295 287 283 280 278 279 279 278 276 272 270 268 267 268 268 268 268 269 269 270 270 269 268 267 265 264 263 262 261 260 259 259 259 260 260 260 259 260 260 261 262 263 263 262 262 262 263 265 266 267
141 137 131 123 121 120 117 110 104 99 95 89 72 17 329 313 296 288 283 278 277 277 278 279 279 277 274 270 267 265 264 264 265 266 266 267 267 268 269 269 270 270 270 269 267 266 266 266 265 265 264 263 264 265 265 264 264 265 265 265 266 266 266 265 265 265 265 265 265
143 140 137 133 134 131 124 111 105 104 108 124 180 224 240 247 254 259 265 272 281 286 287 287 283 279 276 272 270 269 268 268 269 271 272 274 275 276 278 279 279 280 281 281 281 280 279 278 278 277 276 275 275 274 274 273 273 271 271 271 270 270 270 269 269 269 268 268 268
142 141 142 140 138 132 121 110 110 119 139 170 198 215 226 237 251 266 285 299 299 295 290 286 283 281 280 280 279 278 278 278 280 281 282 284 285 286 286 286 287 287 287 287 287 287 285 283 282 281 280 279 278 277 276 276 275 274 274 273 273 272 272 272 271 271 271 271 271
129 132 132 127 121 113 108 108 117 136 162 187 206 223 253 301 322 323 316 305 292 285 280 278 278 279 280 281 281 282 283 285 286 286 287 287 288 288 288 288 288 288 288 287 287 285 284 282 281 281 280 279 277 275 274 274 274 274 274 274 273 272 272 272 272 272 272 271 272
78 86 90 89 90 93 97 109 121 138 156 181 7 11 8 359 342 322 301 286 278 275 274 275 276 277 277 278 280 282 285 286 287 287 287 287 287 287 287 287 287 287 287 286 285 283 282 282 280 280 279 278 277 275 274 274 273 273 273 273 273 273 272 272 272 273 272 272 272
60 65 70 74 78 84 92 101 98 77 48 26 14 7 357 338 310 292 279 271 271 272 274 275 275 275 276 278 282 284 286 286 287 286 287 286 287 287 287 287 287 287 287 287 285 284 283 282 281 281 280 279 279 278 277 276 276 275 275 274 274 274 274 274 274 274 273 273 273
77 80 84 90 93 96 95 83 63 44 29 15 356 341 323 300 285 276 269 266 268 269 270 271 272 275 278 281 284 285 286 286 286 286 286 286 287 287 287 287 288 288 288 287 286 285 284 282 282 281 281 280 280 280 280 279 278 278 277 277 277 277 277 277 276 276 276 275 275
104 109 115 123 132 133 118 89 58 25 360 334 315 301 288 278 273 271 270 269 269 269 269 270 274 278 281 283 283 284 285 285 285 285 285 286 286 287 287 288 288 288 288 287 286 286 284 283 282 281 281 281 282 282 282 282 281 280 280 279 279 279 279 279 279 279 279 278 278
147 154 161 167 180 182 175 16 335 318 306 296 286 278 272 269 270 271 272 273 272 272 273 276 279 281 282 282 282 282 282 283 283 284 284 285 286 287 287 288 288 288 288 287 286 286 285 285 284 284 284 284 284 283 283 283 282 282 281 281 281 281 281 281 281 280 280 280 279
191 197 203 213 244 301 330 328 312 298 287 278 271 268 268 270 273 274 275 275 276 278 281 284 284 283 282 281 281 280 280 281 282 283 284 285 286 287 287 288 288 288 288 287 287 286 286 286 286 286 286 285 284 283 283 282 281 281 280 280 280 280 280 280 280 280 280 280 281
227 244 273 310 326 330 319 299 285 276 271 268 268 270 273 275 276 277 278 280 282 285 287 287 285 283 281 280 280 279 279 280 282 284 285 287 287 288 288 288 288 288 288 288 287 287 286 286 285 285 284 283 282 281 281 280 279 278 277 277 277 277 278 279 280 282 283 284 284
269 307 328 332 319 292 269 261 258 260 263 266 272 275 277 277 277 278 280 282 285 286 285 283 281 280 279 279 280 281 282 283 285 286 287 288 287 287 287 287 287 287 287 286 285 284 283 283 282 281 280 279 279 278 277 276 275 274 274 273 274 275 278 281 283 285 286 286 286
345 351 340 313 281 261 255 255 258 263 268 273 276 277 276 275 276 277 279 281 281 280 279 277 278 278 279 281 283 285 286 287 287 287 286 286 285 285 285 284 284 284 283 282 281 280 280 279 278 278 278 277 277 276 276 275 275 275 275 275 277 279 281 282 283 283 284 284 285
7 359 344 322 298 277 266 263 267 272 276 277 276 274 273 273 275 278 279 279 277 276 276 277 278 280 282 285 286 287 288 287 286 285 284 283 283 282 282 282 281 281 280 280 279 279 279 279 279 279 279 279 279 279 279 280 281 282 283 284 285 285 284 282 281 282 282 283 283
4 354 341 324 301 282 273 270 272 274 273 272 272 272 273 277 280 281 280 278 276 277 279 281 283 285 286 286 287 286 286 285 284 283 282 281 281 281 281 280 280 279 278 278 277 276 276 277 279 280 280 279 280 280 281 283 285 287 289 290 289 287 285 283 282 281 280 279 278
350 330 307 285 272 266 264 265 266 267 267 268 271 275 281 285 285 283 281 280 282 284 286 288 288 288 287 286 285 283 282 281 281 281 281 280 279 278 278 278 277 277 276 275 274 274 273 273 275 276 278 279 281 282 284 286 287 288 288 287 286 285 283 280 278 276 275 273 272
275 258 250 246 246 248 251 255 257 260 264 270 277 284 289 289 288 287 287 289 291 292 293 292 290 287 284 283 281 280 278 277 277 277 278 278 278 278 277 277 277 277 276 276 275 275 275 274 273 275 279 284 289 291 291 290 288 286 284 283 281 279 277 276 274 273 271 270 268
232 230 230 231 234 238 244 249 255 262 270 281 288 291 292 292 293 295 296 297 296 295 293 290 287 283 280 279 277 277 276 276 277 277 278 279 280 281 281 281 280 279 279 278 278 278 278 277 279 283 291 300 300 297 293 290 287 284 281 279 276 274 273 273 273 273 272 270 267
226 224 224 226 231 238 245 254 263 273 283 290 292 293 294 296 297 298 298 297 295 294 292 289 285 283 281 281 279 280 281 282 283 283 283 283 283 283 284 284 283 283 282 282 283 283 284 287 294 304 313 314 306 298 291 288 286 284 281 278 276 274 274 273 272 272 271 269 267
225 224 225 229 237 246 256 267 276 283 288 291 293 295 296 297 297 296 296 296 296 295 294 292 290 289 288 288 287 287 287 287 286 286 286 285 285 286 286 287 288 288 288 289 290 293 297 305 313 317 316 313 306 299 294 290 288 286 284 281 279 276 274 272 270 268 267 266 265
231 230 232 238 247 256 264 272 277 283 288 292 295 296 296 295 295 296 297 298 298 297 296 296 295 293 291 289 289 289 289 288 288 288 289 290 291 292 292 293 293 294 294 295 297 302 308 315 316 314 312 310 305 300 295 292 289 287 284 280 276 273 271 269 267 266 265 264 264
247 245 243 244 248 255 262 269 276 283 290 293 295 295 295 295 296 297 298 299 299 298 297 296 294 292 290 290 290 291 291 292 293 294 295 296 296 296 296 296 296 295 295 298 302 308 313 315 313 310 308 306 303 298 292 288 285 281 277 273 269 267 266 265 264 263 263 263 263
253 252 250 246 247 253 261 272 281 289 293 294 294 294 294 294 295 297 298 298 298 297 296 295 293 292 292 293 294 294 295 296 297 298 298 298 298 297 297 296 296 296 298 302 307 311 313 311 308 306 303 302 298 293 287 282 278 273 270 267 265 264 263 262 262 261 261 261 261
253 256 258 257 258 264 274 286 293 296 295 294 293 293 293 295 296 297 297 297 295 294 294 294 294 294 295 297 297 298 298 298 298 298 298 298 298 298 297 297 296 298 301 306 309 310 309 307 304 302 300 298 294 288 282 277 273 269 266 264 263 262 261 260 260 260 260 260 260
243 252 258 262 270 281 293 300 299 297 295 292 291 292 294 296 296 296 296 295 293 293 292 293 295 296 297 298 299 299 299 299 299 299 299 299 298 298 298 299 298 301 304 307 308 307 306 304 302 300 297 295 290 285 278 274 271 267 264 263 262 261 259 258 258 258 258 258 258
221 235 250 267 284 297 303 302 300 298 296 294 293 293 294 294 294 294 294 293 293 294 294 296 297 298 299 299 299 299 298 298 298 299 299 300 301 301 301 300 300 302 305 306 306 305 303 301 299 297 294 291 287 281 276 273 269 266 264 263 262 260 259 258 257 257 257 257 257
210 219 253 304 306 304 303 304 304 302 299 294 292 292 292 293 292 293 293 294 296 297 298 300 300 300 300 299 299 298 298 299 299 300 301 302 304 304 303 302 302 303 304 305 304 302 301 299 296 293 291 288 283 277 274 270 267 265 263 262 261 260 259 259 258 258 258 258 258
104 51 23 336 313 311 312 313 309 303 297 292 291 291 291 292 293 294 296 299 300 301 301 301 301 301 300 300 299 299 300 301 302 303 303 305 306 306 305 304 303 303 303 303 301 299 297 295 293 290 288 285 281 277 273 270 267 264 263 262 261 260 260 260 260 260 260 260 261
23 9 349 331 326 323 320 314 305 297 292 290 291 292 294 296 297 299 300 302 303 302 302 301 300 300 300 300 300 301 301 302 303 304 304 306 307 307 306 304 303 302 301 300 298 296 294 292 290 287 285 282 279 277 274 270 267 265 264 263 264 263 262 262 262 262 262 262 263
356 343 336 333 329 323 315 305 297 292 291 292 295 297 299 300 300 302 303 303 302 301 300 300 301 301 301 303 303 303 303 303 304 304 305 307 307 307 305 303 302 300 299 297 295 293 291 289 287 286 284 281 279 277 274 272 269 267 266 266 267 267 266 265 266 266 266 265 267
348 341 335 330 322 313 305 298 295 294 295 298 300 301 302 302 302 302 302 301 301 301 301 301 302 302 303 304 304 303 303 304 305 305 306 307 306 306 305 302 300 298 296 294 292 291 289 288 287 286 285 282 281 279 277 274 272 271 270 270 272 273 274 275 275 275 275 274 273
345 336 329 321 313 306 301 298 298 299 301 302 303 303 303 303 302 302 302 302 302 303 303 303 303 303 303 304 303 303 304 304 306 307 308 308 307 306 304 300 298 296 294 292 291 290 289 289 288 288 288 287 287 284 281 278 276 276 278 281 286 290 292 292 289 285 281 279 276